Regional Weather Roundup
Issued by NWS Burlington, VT

Home | Current Version | Previous Version | Graphics & Text | Print | Product List | Glossary On
Versions: 1 2 3 4 5 6 7 8 9 10 11 12 13 14 15 16 17 18 19 20 21 22 23 24 25 26 27 28 29 30 31 32 33 34 35 36 37 38 39 40 41 42 43 44 45 46 47 48 49 50
916
ASUS41 KBTV 131330
RWRBTV
VERMONT REGIONAL WEATHER ROUNDUP
NATIONAL WEATHER SERVICE BURLINGTON VT
800 AM EST SAT FEB 13 2016

NOTE: "FAIR" INDICATES FEW OR NO CLOUDS BELOW 12,000 FEET WITH NO
SIGNIFICANT WEATHER AND/OR OBSTRUCTIONS TO VISIBILITY.

* THESE REPORTS ARE NOT UNDER NWS QUALITY CONTROL AND/OR DO NOT
  REPORT WEATHER SUCH AS PRECIPITATION AND FOG.

VTZ001>019-131400-
_____VERMONT_____


CITY           SKY/WX    TMP DP  RH WIND       PRES   REMARKS
BURLINGTON     MOCLDY     2  -8  63 N15       29.96R WCI -17
MONTPELIER     PTSUNNY    4  -3  73 N10       29.85R WCI -11
MORRISVILLE    LGT SNOW   2  -6  69 N17       29.90R VSB 3/4 WCI -18
ST. JOHNSBURY*   N/A      8  -2  63 MISG      29.82R
LYNDONVILLE*   PTSUNNY    6  -2  68 W9        29.80R WCI  -8
RUTLAND*       CLOUDY    12  -2  52 W16       29.84R WCI  -4
SPRINGFIELD    LGT SNOW   4   0  83 CALM      29.84S FOG
HIGHGATE*      CLOUDY    -5 -14  64 W9        30.02R WCI -22
NEWPORT*       CLOUDY     0  -8  70 NW14G20   29.85R HAZE    WCI -19
BENNINGTON     PTSUNNY   13   0  56 W12G20    29.86R WCI  -1
GALLUP MILLS*    N/A      7 N/A N/A MISG        N/A
UNION VILLAGE*   N/A      5 N/A N/A MISG        N/A
MT. MANSFIELD*   N/A    -13 N/A N/A NW31        N/A  WCI -44

_____LAKE CHAMPLAIN_____


CITY           SKY/WX    TMP DP  RH WIND       PRES   REMARKS
COLCHESTER RF*   N/A      5  -4  66 NW23        N/A  WCI -17
DIAMOND ISL*     N/A     10   1  67 NW21        N/A  WCI  -9

$$

NYZ007-026>031-035-052-083-131400-
_____NORTHERN NEW YORK_____


CITY           SKY/WX    TMP DP  RH WIND       PRES   REMARKS
PLATTSBURGH    CLOUDY     0 -13  54 CALM      29.98R
SARANAC LAKE   MOCLDY   -14 -21  71 VRB7      29.85R WCI -30
MASSENA        CLOUDY   -15 -24  64 W16G23    30.17R HAZE    WCI -39
OGDENSBURG*    CLEAR    -15 -26  58 NW10G21   30.18R WCI -35
WATERTOWN      HVY SNOW -12 -18  74 N15       30.20R VSB 1/4 WCI -35
ALBANY         PTCLDY    13   0  56 W14G21    29.95R WCI  -2
GLENS FALLS    CLEAR     13  -5  44 NW10      29.92R WCI   0

$$
NHZ002-005-011-131400-
_____NEW HAMPSHIRE_____


CITY           SKY/WX    TMP DP  RH WIND       PRES   REMARKS
LEBANON        PTSUNNY    7   2  80 NE3       29.82R
MT WASHINGTON  BLWGSNOW -11 -11 100 W31         N/A  VSB 1/16WCI -41
PLYMOUTH       FAIR      12   8  84 W7        29.81R WCI   2
WHITEFIELD     FLURRIES  11   4  73 NW9       29.76R WCI  -2

$$

_____REGIONAL QUEBEC LOCATIONS_____


CITY           SKY/WX    TMP DP  RH WIND       PRES   REMARKS
MONTREAL       PTCLDY    -9 -18  64 W20G25    30.02R WCI -34
QUEBEC CITY    LGT SNOW   7   1  78 SW10      29.79R WCI  -8
SHERBROOKE     LGT SNOW   3   0  85 W12       29.81S WCI -13

_____REGIONAL ONTARIO LOCATIONS_____


CITY           SKY/WX    TMP DP  RH WIND       PRES   REMARKS
OTTAWA         PTCLDY   -20 -31  57 NW21G28   30.15R WCI -49

______KEY______
VSB  - VISIBILITY IN MILES
WCI  - WIND CHILL INDEX
HX   - HEAT INDEX
$$
NNNN




USA.gov is the U.S. government's official web portal to all federal, state and local government web resources and services.